Lapse_Rate
7.2 7.2 7.1 7.1 7.3 7.4 7.3 7.4 7.5 7.5 7.6 7.6 7.6 7.6 7.6 7.5 7.5 7.5 7.4 7.0 7.0 7.0 7.1 7.1 7.0 7.0 7.0 7.1 7.5 7.6 7.7 7.8 7.9 8.0 8.3 8.4 8.3 8.6 8.4 8.3 8.3 8.2 8.2 7.9 7.8 7.7 7.6
7.1 6.9 6.9 6.9 7.1 7.1 7.1 7.1 7.4 7.6 7.6 7.4 7.5 7.5 7.5 7.3 7.4 7.2 7.0 6.8 6.9 7.0 7.0 6.9 7.0 7.0 7.1 7.0 7.2 7.5 7.6 7.6 7.8 7.9 7.9 8.1 8.3 8.5 8.3 8.0 8.1 8.1 8.0 7.9 7.9 7.8 7.8
6.9 6.7 6.6 6.7 6.8 7.0 6.9 7.0 7.2 7.3 7.3 7.5 7.5 7.5 7.5 7.1 7.1 6.9 6.7 6.7 6.7 6.7 6.7 6.9 6.9 7.1 7.1 7.2 7.3 7.5 7.5 7.6 7.6 7.7 7.8 7.8 8.1 8.0 8.0 8.0 8.0 7.9 7.8 7.8 7.8 7.8 7.8
6.8 6.4 6.6 6.5 6.6 6.6 6.8 6.9 6.9 7.2 7.3 7.4 7.1 7.1 7.2 7.0 6.8 6.7 6.6 6.5 6.5 6.6 6.9 6.9 7.0 7.0 6.9 7.2 7.4 7.4 7.4 7.5 7.5 7.6 7.7 7.9 8.1 8.1 8.1 8.0 7.9 7.7 7.7 8.1 7.6 7.5 7.7
6.6 6.3 6.5 6.5 6.4 6.5 6.6 6.8 6.6 6.7 6.9 6.9 6.9 6.9 6.8 6.6 6.6 6.5 6.5 6.5 6.6 6.7 6.9 7.0 7.0 6.9 7.1 7.3 7.4 7.4 7.4 7.4 7.5 7.5 7.6 7.8 7.9 8.1 8.0 8.0 8.1 7.9 8.4 7.9 7.5 7.5 7.5
6.3 6.3 6.3 6.4 6.3 6.3 6.7 6.5 6.4 6.3 6.4 6.3 6.3 6.4 6.5 6.5 6.5 6.5 6.5 6.6 6.7 6.8 6.9 6.8 6.9 7.1 7.2 7.5 7.6 7.7 7.6 7.5 7.4 7.4 7.6 7.6 7.8 7.9 7.9 8.2 8.7 8.1 8.0 7.6 7.6 7.3 7.4
6.2 6.2 6.3 6.4 6.3 6.4 6.4 6.3 6.2 6.3 6.1 6.1 6.2 6.4 6.4 6.5 6.5 6.4 6.5 6.7 6.8 6.7 6.9 7.0 7.2 7.3 7.4 7.7 7.8 7.8 7.8 7.7 7.6 7.6 7.7 7.8 7.8 7.6 7.5 7.7 7.7 7.6 7.4 7.5 7.3 7.4 7.2
6.1 6.1 6.4 6.3 6.3 6.3 6.1 6.0 5.9 5.8 5.9 6.0 6.2 6.4 6.4 6.5 6.5 6.6 6.9 7.0 7.0 7.2 7.0 7.1 7.2 7.4 7.7 7.9 8.0 7.9 7.8 7.7 7.7 7.7 7.9 7.8 7.5 7.5 7.4 7.3 7.3 7.3 7.2 7.2 6.8 7.0 7.1
6.0 6.2 6.2 6.2 6.3 6.0 5.9 5.8 5.7 5.8 5.8 5.9 6.2 6.4 6.5 6.6 6.6 6.8 6.9 7.0 7.2 7.4 6.8 7.0 7.3 7.4 7.7 7.5 7.9 7.8 7.8 7.8 7.8 7.8 7.7 7.7 7.5 7.4 7.3 7.1 7.0 7.0 6.9 6.6 6.6 6.5 7.0
6.0 6.0 6.1 6.0 6.1 5.9 5.8 5.8 5.7 5.7 5.8 6.0 6.2 6.3 6.5 6.6 6.6 6.8 6.9 7.1 7.2 7.4 7.1 7.0 7.2 7.3 7.5 7.6 7.6 7.7 7.7 7.7 7.7 7.6 7.3 7.3 7.2 7.1 6.9 6.9 7.0 7.1 6.8 6.7 6.8 6.8 8.1
6.1 6.1 5.9 5.9 5.9 5.8 5.8 5.9 5.8 5.8 5.8 6.0 6.1 6.3 6.4 6.5 6.7 6.9 7.0 7.1 7.2 7.3 7.8 7.0 7.1 7.2 7.4 7.5 7.5 7.4 7.5 7.6 7.7 7.6 7.5 7.3 7.2 7.1 6.8 6.9 6.9 6.4 6.8 6.9 6.9 6.7 7.1
6.3 6.3 6.1 6.0 5.8 5.8 5.8 6.0 5.8 5.8 5.8 6.0 6.2 6.3 6.4 6.6 6.7 6.8 7.0 7.1 7.2 7.1 7.0 6.7 6.8 6.8 7.1 7.3 7.4 7.3 7.5 7.5 7.5 7.4 7.4 7.3 7.1 7.0 6.9 6.9 6.8 6.7 6.9 6.7 6.7 6.7 7.6
6.5 6.5 6.1 6.1 5.9 5.7 5.8 5.9 5.9 5.9 6.0 6.0 6.2 6.4 6.6 6.6 6.7 6.8 6.9 7.0 6.9 7.2 6.9 6.6 6.7 6.9 7.2 7.1 7.2 7.2 7.3 7.5 7.4 7.3 7.1 6.9 6.8 6.8 6.8 6.6 6.6 6.5 6.8 7.7 7.4 7.6 8.1
6.5 6.5 6.3 6.1 5.9 5.9 5.8 5.9 6.0 6.0 6.0 6.1 6.3 6.4 6.5 6.6 6.7 6.7 6.8 6.8 6.9 6.7 6.6 6.9 6.9 7.0 7.1 7.0 6.9 7.0 7.1 6.9 7.3 7.2 6.9 7.1 7.3 6.7 6.8 6.8 6.7 6.7 6.7 7.1 7.3 7.7 7.9
6.6 6.4 6.3 6.2 6.0 6.0 5.9 5.9 6.1 6.2 6.2 6.3 6.3 6.5 6.6 6.7 6.7 6.7 6.7 6.7 6.6 6.6 6.9 6.8 6.8 6.9 6.8 6.9 6.9 7.0 7.1 6.9 7.0 7.1 6.9 6.8 6.9 6.9 6.9 6.8 6.8 6.7 6.7 6.8 6.6 6.3 6.4
6.8 6.6 6.3 6.3 6.1 6.1 6.0 6.0 6.1 6.2 6.3 6.3 6.4 6.5 6.5 6.5 6.5 6.5 6.5 6.8 6.8 6.8 6.8 6.8 6.9 6.9 6.8 6.7 6.7 6.8 6.6 6.7 6.7 6.9 7.0 6.9 6.8 6.8 6.8 6.7 6.7 6.6 6.6 6.8 6.7 6.8 7.0
7.0 6.6 6.5 6.4 6.2 6.1 6.1 6.1 6.1 6.2 6.3 6.3 6.3 6.3 6.4 6.5 6.4 6.5 6.5 6.8 6.7 6.6 6.7 6.8 6.9 6.9 6.8 6.7 6.7 6.8 6.7 6.7 6.8 6.7 6.9 7.0 6.8 6.6 6.7 6.5 6.5 6.5 6.5 6.5 6.5 6.4 7.1
7.1 6.8 6.6 6.5 6.4 6.2 6.1 6.1 6.1 6.1 6.1 6.2 6.2 6.2 6.3 6.4 6.4 6.5 6.6 6.7 6.7 6.6 6.7 6.8 6.8 6.9 6.8 6.8 6.7 6.8 6.8 6.7 6.7 6.7 6.6 6.9 7.0 6.8 6.6 6.7 6.6 6.5 6.3 6.4 6.6 6.5 6.2
7.1 6.9 6.9 6.6 6.5 6.4 6.2 6.3 6.1 6.0 6.0 6.1 6.1 6.3 6.2 6.3 6.4 6.5 6.6 6.8 6.7 6.6 6.7 6.7 6.7 6.8 6.8 6.9 6.8 6.7 6.6 6.5 6.5 6.6 6.6 6.7 6.7 6.9 6.7 6.2 6.2 6.1 6.0 6.1 6.0 5.7 6.0
7.0 7.1 6.9 6.8 6.7 6.5 6.3 6.2 6.1 5.9 6.0 6.0 6.0 6.0 6.1 6.2 6.4 6.6 6.8 6.7 6.7 6.6 6.5 6.7 6.8 6.7 6.8 6.8 6.8 6.7 6.5 6.5 6.6 6.7 6.8 6.8 6.8 6.6 7.2 7.0 6.2 6.1 6.2 6.0 5.9 5.7 6.4
7.0 7.0 7.0 6.9 6.8 6.6 6.5 6.2 6.0 6.0 5.9 5.9 6.0 6.0 6.3 6.1 6.3 6.6 6.7 6.8 6.8 6.6 6.6 6.6 6.6 6.7 6.7 6.8 6.7 6.7 6.7 6.6 6.7 6.8 6.8 6.7 6.8 6.4 6.3 6.6 6.1 5.7 6.4 6.1 6.1 6.1 5.9
7.0 7.0 6.9 6.9 6.9 6.8 6.6 6.4 6.2 6.0 5.9 5.9 5.9 6.1 6.1 6.3 6.2 6.2 6.5 6.6 6.6 6.6 6.6 6.6 6.7 6.7 6.7 6.8 6.8 6.7 6.6 6.7 6.7 6.7 6.6 6.7 6.4 6.6 6.7 6.8 6.5 6.2 6.5 5.9 6.1 6.3 6.3
7.0 7.0 6.9 6.8 6.9 6.9 6.7 6.5 6.5 6.3 6.1 6.1 6.1 6.1 6.1 6.2 6.2 6.2 6.4 6.5 6.4 6.4 6.5 6.6 6.5 6.5 6.5 6.6 6.6 6.7 6.8 6.8 6.7 6.5 6.5 6.5 6.3 6.0 6.1 6.4 6.2 6.5 6.5 6.4 6.5 6.2 6.1
6.9 7.0 7.0 6.8 7.0 6.9 6.8 6.6 6.5 6.4 6.3 6.3 6.2 6.2 6.1 6.3 6.1 6.2 6.3 6.3 6.3 6.4 6.5 6.5 6.3 6.3 6.4 6.4 6.5 6.7 6.7 6.7 6.7 6.7 6.5 6.5 6.1 5.7 5.7 6.0 6.1 6.7 6.4 6.5 6.5 6.6 6.2
6.8 6.9 7.0 6.9 6.9 6.8 6.8 6.7 6.5 6.4 6.4 6.4 6.3 6.1 6.2 6.2 6.2 6.1 6.1 6.2 6.2 6.1 6.1 6.1 6.1 6.2 6.1 6.2 6.3 6.5 6.6 6.5 6.7 6.6 6.5 6.5 6.1 5.7 5.3 5.3 5.8 6.7 6.4 6.0 5.7 6.1 5.9
6.7 6.9 7.0 6.9 6.8 6.7 6.7 6.7 6.6 6.4 6.4 6.3 6.2 6.2 6.2 6.2 6.2 6.2 6.2 6.1 6.1 6.0 5.9 5.9 6.0 6.0 6.0 6.1 6.2 6.3 6.4 6.4 6.2 6.4 6.4 6.1 5.9 5.6 5.1 5.1 5.7 6.3 6.1 5.7 5.8 5.8 5.7
6.8 6.8 6.8 6.9 6.9 6.7 6.7 6.6 6.6 6.4 6.3 6.4 6.3 6.2 6.2 6.2 6.2 6.1 6.1 6.2 6.1 6.0 6.0 5.9 5.9 5.9 5.9 6.0 6.0 6.1 6.1 6.3 6.2 6.3 6.1 5.9 5.6 5.5 5.0 5.1 5.3 6.1 5.8 5.2 5.3 5.6 5.5
6.8 6.8 6.9 6.9 6.8 6.8 6.7 6.6 6.4 6.3 6.3 6.3 6.3 6.2 6.1 6.0 6.1 6.0 6.0 6.0 6.0 6.1 6.1 6.2 6.0 6.0 5.9 6.0 6.0 6.1 6.0 6.1 6.0 6.1 6.0 5.7 5.6 5.5 5.2 5.3 5.3 6.0 5.7 5.4 5.3 5.5 5.2
6.6 6.7 6.8 6.9 6.9 6.8 6.7 6.6 6.5 6.3 6.2 6.3 6.3 6.2 6.1 6.0 6.0 6.0 5.9 5.9 5.9 6.0 6.0 6.0 6.0 6.1 6.1 6.1 6.0 5.8 5.8 5.7 5.7 5.6 5.7 5.6 6.0 5.7 5.6 6.0 6.0 5.6 5.4 5.4 5.7 5.5 5.1
Wind_Speed
14 15 15 15 14 14 14 14 12 12 11 11 10 11 12 13 12 12 12 13 12 11 10 9 10 8 4 5 5 8 14 8 2 4 4 6 7 6 8 11 12 13 9 6 4 6 3
15 16 14 14 13 13 13 12 10 10 8 8 8 10 11 11 12 12 12 13 12 12 8 9 8 8 5 8 3 6 10 5 6 4 6 2 3 6 8 6 2 6 7 5 4 5 2
15 15 14 13 13 11 11 10 8 7 7 6 8 9 9 11 11 12 12 12 12 7 8 7 5 4 4 5 3 6 6 2 4 4 4 4 2 3 4 9 4 9 10 6 6 3 2
14 14 12 12 13 11 10 8 6 5 5 4 5 6 7 9 11 11 12 11 7 7 7 4 4 4 5 2 4 4 4 2 3 3 4 4 6 7 2 7 5 4 4 6 7 2 2
13 12 11 11 12 13 11 8 7 4 3 2 3 5 8 9 9 9 8 6 7 7 5 6 3 3 6 1 1 5 4 1 3 4 5 3 2 4 5 6 7 2 2 2 6 4 4
11 10 10 11 11 13 11 11 8 6 3 1 2 3 5 6 7 5 5 6 6 6 3 2 2 6 2 4 4 5 2 2 2 4 5 1 2 4 3 4 1 2 2 2 3 4 5
9 7 9 10 13 11 13 11 9 6 3 2 1 3 5 5 5 8 7 3 4 4 7 5 6 5 2 2 1 7 3 3 2 3 2 5 2 6 8 7 5 1 2 3 1 3 9
6 6 8 10 12 13 12 12 11 9 6 3 0 2 3 6 9 11 4 1 4 3 9 5 3 2 2 2 6 12 7 1 1 4 2 4 7 5 5 5 1 2 3 1 1 1 5
4 6 8 9 12 13 12 12 11 8 6 4 2 1 5 10 13 5 3 5 2 2 6 6 3 3 3 6 7 11 8 3 7 7 4 3 6 3 0 4 4 1 2 4 5 6 3
1 3 7 10 12 13 13 14 11 9 7 5 4 2 8 16 4 2 3 2 3 2 3 3 2 4 2 1 5 8 7 3 3 8 7 7 3 2 2 4 6 2 2 9 7 6 3
1 3 6 9 12 15 16 15 14 10 7 4 0 10 16 11 6 2 3 1 2 2 3 1 4 4 6 3 1 11 4 5 6 5 4 4 4 3 4 4 5 5 7 6 3 5 4
2 3 6 9 12 16 18 17 15 10 7 5 1 5 10 4 3 3 2 3 2 2 3 3 1 4 7 10 5 4 5 8 1 7 10 6 2 3 5 2 2 5 4 1 1 2 4
3 3 6 9 13 17 18 19 16 10 5 5 12 10 3 1 3 1 2 3 3 2 1 6 6 5 7 6 7 10 13 11 4 2 2 3 4 2 6 4 4 8 3 2 2 4 1
5 3 5 8 12 17 19 17 16 11 6 2 6 4 7 6 3 1 2 2 3 2 1 3 5 8 4 3 6 6 4 9 13 6 3 3 4 8 9 5 6 6 5 3 3 2 2
5 3 4 8 12 16 19 17 16 13 7 1 1 2 3 4 4 1 3 2 3 4 4 7 8 5 4 4 2 3 7 5 8 10 4 3 3 4 7 5 4 3 3 2 2 1 3
5 4 5 8 12 15 18 16 16 14 7 1 3 3 3 7 3 2 1 2 2 1 2 3 4 1 4 4 3 2 2 3 2 6 4 2 2 2 1 3 7 4 3 2 2 3 3
4 3 5 8 12 15 16 15 16 14 6 3 1 4 2 3 2 1 2 3 4 2 1 2 4 4 4 4 4 3 3 3 2 3 4 3 2 2 3 3 3 2 2 2 2 2 3
3 3 5 7 10 13 13 15 16 15 4 4 2 3 3 2 3 1 4 4 2 4 2 4 4 5 4 3 3 3 4 3 2 2 2 4 1 2 1 2 2 1 2 1 2 2 2
4 3 4 6 9 12 12 14 17 15 7 3 2 3 2 2 3 3 4 4 3 3 3 3 3 2 2 4 4 5 3 2 1 0 2 1 0 2 3 5 4 5 4 2 1 1 9
7 3 3 4 7 11 12 14 16 14 5 1 2 3 2 2 1 9 10 6 5 4 4 5 5 6 7 5 3 6 5 2 1 2 3 1 2 4 5 7 5 6 9 7 9 4 7
7 5 3 3 7 10 12 13 15 13 3 1 2 2 2 3 3 8 5 6 11 5 3 2 4 3 5 4 4 4 3 4 2 3 1 2 3 4 8 12 13 11 14 13 15 15 10
7 3 4 4 6 9 11 14 17 14 1 3 2 3 2 3 5 9 1 6 9 6 2 4 7 7 4 5 2 5 4 3 2 3 2 1 1 3 4 8 9 12 15 14 13 14 15
8 5 2 2 5 8 11 15 19 16 3 2 2 1 1 1 3 3 3 6 8 8 5 3 13 10 8 8 6 7 5 5 3 1 2 1 1 1 4 9 12 6 2 5 5 4 8
10 7 4 2 3 7 11 16 19 16 6 2 2 2 2 3 1 3 7 5 11 3 8 7 4 5 4 10 10 7 8 6 3 3 1 3 3 1 3 5 3 3 6 11 12 13 6
12 9 7 4 3 6 10 15 18 14 6 3 2 0 3 3 2 5 9 9 10 8 8 7 5 4 6 2 2 3 1 2 3 5 3 2 3 2 1 3 14 11 3 2 5 13 9
13 10 8 6 4 5 8 13 16 15 5 4 3 1 2 6 4 5 6 9 6 4 4 3 4 2 2 2 2 2 2 1 3 4 4 5 3 2 3 3 4 2 3 3 3 11 5
14 12 9 7 5 4 6 10 13 15 9 3 3 3 0 3 3 3 3 6 4 4 4 4 5 2 2 2 2 3 3 2 3 3 4 3 2 4 6 6 8 7 2 0 4 4 9
14 13 10 8 6 4 4 7 11 13 10 2 2 5 2 3 3 1 3 4 4 4 4 6 5 2 2 3 3 3 2 3 3 1 3 4 5 4 2 4 6 4 3 5 10 10 11
15 14 12 9 7 5 2 5 9 13 10 3 2 3 4 4 3 2 3 4 3 2 5 5 1 4 5 3 2 3 3 1 2 3 4 5 6 3 7 6 6 7 11 10 10 10 3
Wind_Direction
292 295 300 304 310 304 301 294 288 278 266 257 245 237 235 238 242 247 257 259 264 274 281 309 303 312 275 143 69 353 335 353 333 85 106 118 129 119 108 115 109 112 123 115 130 148 108
294 296 303 306 310 308 307 303 295 282 264 256 245 238 234 232 233 242 250 254 264 269 295 291 296 317 234 107 347 337 336 318 36 56 71 80 114 124 106 107 83 113 117 116 145 147 88
295 299 309 311 315 319 312 312 305 286 277 255 242 234 228 227 233 238 246 256 259 284 283 281 287 262 121 89 346 352 335 5 2 7 81 66 146 251 132 107 101 137 140 127 87 138 79
295 300 311 324 320 331 333 326 318 301 272 250 247 235 228 230 231 235 243 249 268 269 266 257 296 241 97 30 329 349 357 116 57 55 76 77 88 90 48 121 133 152 198 202 75 126 58
294 302 320 330 332 340 349 345 348 315 301 286 239 225 220 225 232 235 243 257 254 249 242 264 224 254 114 335 335 359 351 134 97 89 72 92 74 80 163 180 166 167 140 85 147 50 322
292 308 330 331 343 349 354 12 348 344 357 265 229 220 211 212 214 209 225 225 211 226 200 258 227 166 122 47 354 337 50 26 163 160 151 148 113 135 87 250 184 128 181 152 300 51 318
290 320 336 341 353 360 8 11 358 347 339 27 99 185 180 164 160 177 166 200 187 138 62 35 86 72 81 1 288 45 9 191 164 102 124 35 108 65 57 44 50 51 283 289 53 85 321
292 336 341 350 359 1 16 11 2 354 351 349 63 138 163 175 178 181 249 201 42 79 93 41 66 82 4 336 76 38 351 125 75 113 139 153 80 79 69 56 3 288 289 32 18 92 312
299 344 344 360 7 7 14 13 6 356 341 355 328 169 160 156 160 184 124 84 352 281 104 65 25 29 15 38 44 11 1 77 81 103 117 86 76 137 10 55 332 31 345 1 305 298 211
304 357 345 4 7 7 14 15 7 358 352 334 296 126 163 144 156 157 77 49 4 346 119 56 54 59 359 66 66 18 14 354 89 110 90 77 86 104 101 66 343 299 19 309 282 260 221
108 354 3 6 7 12 14 11 8 359 342 314 209 69 154 153 131 119 96 44 104 236 145 144 75 12 47 71 2 30 18 82 85 99 245 90 97 58 55 21 343 23 319 315 290 239 239
120 17 16 6 9 13 10 10 9 1 341 322 159 142 150 180 83 77 117 150 211 244 129 145 153 126 101 58 55 53 54 62 74 76 76 99 101 31 13 312 272 322 270 196 176 199 215
128 51 25 10 12 13 7 10 9 13 5 76 91 88 91 25 94 87 178 212 200 258 167 139 127 116 92 54 63 56 64 57 47 180 80 144 71 72 359 307 179 342 287 225 217 205 36
130 74 36 21 12 15 8 9 11 26 33 103 97 92 54 60 41 162 222 188 220 111 148 106 124 95 85 24 58 50 79 64 44 17 92 6 152 13 359 6 341 11 354 17 304 305 316
139 98 47 31 17 16 8 6 13 25 45 136 347 73 75 20 9 274 211 190 153 165 128 144 135 133 105 82 83 86 56 55 30 11 36 352 96 87 53 28 310 34 49 18 119 148 256
145 98 41 25 18 17 9 9 15 14 33 11 128 119 75 338 344 231 113 105 119 128 129 166 127 308 136 117 130 105 70 32 73 24 329 59 200 58 119 248 65 26 114 238 36 334 297
145 107 41 19 15 11 11 10 10 6 22 140 115 146 58 343 251 168 144 112 125 84 339 24 119 119 105 119 100 95 93 107 35 71 38 17 309 107 235 2 339 176 152 71 69 321 288
145 103 50 24 10 4 11 9 6 1 35 158 150 143 36 266 142 76 128 116 90 117 96 94 87 91 113 101 93 106 137 71 26 329 30 34 36 273 14 89 336 319 135 104 289 206 234
150 117 58 30 7 0 10 9 5 6 7 151 109 94 76 264 149 117 125 102 73 131 53 106 104 72 116 120 118 123 122 100 28 62 33 117 218 289 177 171 196 239 186 129 122 230 239
155 137 82 42 14 358 7 10 6 8 11 94 157 126 93 74 10 146 142 135 117 62 78 78 106 119 125 106 75 140 139 136 37 72 44 250 233 255 287 318 317 257 260 262 242 242 265
163 143 103 49 19 0 6 5 7 6 358 241 20 89 11 150 145 140 126 149 141 133 88 105 111 164 140 118 112 129 143 151 132 144 128 299 275 283 283 287 284 283 273 266 243 244 263
158 140 95 53 9 5 4 4 7 6 7 83 136 152 110 81 125 137 65 151 154 126 158 125 144 121 125 129 155 163 157 213 204 152 150 23 286 348 287 296 289 289 273 260 258 257 260
160 147 105 67 357 11 7 6 10 11 315 97 117 100 132 335 124 165 138 146 150 132 58 68 133 117 95 105 80 57 58 59 73 218 185 262 194 351 285 320 317 277 254 170 206 239 273
169 154 156 135 24 19 14 14 16 21 31 76 86 116 105 127 193 118 148 129 142 91 127 124 116 102 94 113 106 90 68 68 99 61 338 136 112 49 303 300 285 41 281 284 284 296 285
176 167 165 141 68 28 20 21 20 29 47 90 96 177 118 108 113 116 132 122 107 93 98 115 54 56 139 121 94 24 119 61 77 50 87 232 139 127 260 270 294 298 83 48 315 299 316
180 179 171 152 116 50 26 26 24 27 61 82 71 335 91 120 220 135 127 158 137 123 118 81 81 57 79 77 86 142 238 279 182 153 79 80 92 255 163 252 267 359 53 331 277 289 80
186 183 175 162 140 92 36 30 27 26 41 82 71 2 115 103 138 176 143 158 129 124 115 135 155 114 329 102 115 184 222 331 234 197 185 131 132 213 223 248 272 288 32 174 265 348 332
192 188 181 170 159 126 58 31 28 22 26 15 86 16 5 85 127 182 151 141 137 169 152 139 148 137 91 105 161 202 213 204 221 225 197 209 178 199 180 260 268 161 244 320 312 302 315
195 196 195 187 177 153 99 33 28 26 23 19 94 35 355 75 89 28 42 24 13 111 131 173 29 150 159 116 184 136 193 176 237 243 197 245 205 251 203 239 283 260 299 312 313 309 336